Location: Madrid
(40.4000°N, 3.6830°W)
Time: 19:43:05
(UTC+01:00)

ISS - Pass Details

Date: 16 January 2021
Orbit: 418 x 421 km, 51.6° (Epoch: 24 January)

Event Time Altitude Azimuth Distance (km) Brightness Sun altitude
Rises 20:08:14 0° 207° (SSW) 2,355 0.6 -21.4°
Reaches altitude 10° 20:10:29 10° 196° (SSW) 1,495 -0.7 -21.8°
Enters shadow 20:11:44 18° 181° (S) 1,090 -1.6 -22.0°
